This demonstration page uses our WeatherBlox Daily Observations layout. Learn more.

40.92945, -100.16068

Hourly Observations for September 7, 2018

Temp ( °F °C ) Dew Point ( °F °C ) Humidity (%) Winds ( mph kmh ) Pressure ( in mb ) Visibility ( mi km ) Precip ( " mm )
12:15 am 00:15 Cloudy 67 19.5 63 17.4 88 88 ESE 3 6 30.18 1022 10 16.0934 0 0
12:35 am 00:35 Cloudy with Mist and Fog 66 19.1 64 17.6 91 91 ESE 6 9 30.18 1022 5 8.0467 0 0
12:55 am 00:55 Cloudy with Drizzle 66 19 64 17.7 92 92 SE 8 13 30.18 1022 2.5 4.02335 0 0
1:15 am 01:15 Cloudy 66 18.8 64 17.6 93 93 ESE 6 9 30.21 1023 10 16.0934 0 0
1:35 am 01:35 Cloudy 66 18.8 64 17.6 93 93 ESE 3 6 30.21 1023 10 16.0934 0 0
1:55 am 01:55 Cloudy with Heavy Rain 65 18.6 64 17.5 93 93 ESE 3 6 30.21 1023 3 4.82802 0 0
2:15 am 02:15 Cloudy with Heavy Rain 65 18.5 64 17.5 94 94 Calm 30.21 1023 3 4.82802 0.04 1.016
2:35 am 02:35 Cloudy with Light Drizzle 65 18.5 64 17.5 94 94 E 6 9 30.21 1023 3 4.82802 0.04 1.016
2:55 am 02:55 Cloudy with Light Drizzle 65 18.5 64 17.5 94 94 NNE 3 6 30.21 1023 3 4.82802 0.04 1.016
3:15 am 03:15 Cloudy with Mist and Fog 65 18.5 64 17.6 95 95 NE 3 6 30.21 1023 3 4.82802 0 0
3:35 am 03:35 Cloudy with Drizzle 65 18.5 64 17.5 94 94 NE 3 6 30.18 1022 2 3.21868 0.01 0.254
3:55 am 03:55 Cloudy with Heavy Rain 65 18.5 64 17.6 95 95 ENE 3 6 30.18 1022 2 3.21868 0.01 0.254
4:15 am 04:15 Cloudy with Rain 65 18.4 64 17.5 95 95 ENE 6 9 30.18 1022 2.5 4.02335 0.01 0.254
4:35 am 04:35 Cloudy with Light Drizzle 65 18.4 64 17.6 95 95 ENE 5 7 30.18 1022 3 4.82802 0.02 0.508
4:55 am 04:55 Cloudy with Rain 64 18 63 17.1 95 95 ESE 8 13 30.18 1022 3 4.82802 0.02 0.508
5:15 am 05:15 Cloudy with Light Rain 64 18 63 17.1 95 95 E 5 7 30.18 1022 2.5 4.02335 0.01 0.254
5:35 am 05:35 Cloudy with Mist and Fog 65 18.2 63 17.4 95 95 ENE 5 7 30.18 1022 5 8.0467 0.01 0.254
5:55 am 05:55 Cloudy with Heavy Drizzle 65 18.2 64 17.5 96 96 N 3 6 30.18 1022 3 4.82802 0.02 0.508
6:15 am 06:15 Cloudy with Rain 65 18.1 63 17.3 95 95 N 7 11 30.18 1022 3 4.82802 0.03 0.762
6:35 am 06:35 Cloudy with Heavy Rain 64 18 63 17 94 94 ENE 9 15 30.18 1022 3 4.82802 0.09 2.286
6:55 am 06:55 Cloudy with Rain 64 17.8 63 17 95 95 E 7 11 30.18 1022 5 8.0467 0.15 3.81
7:15 am 07:15 Cloudy with Rain 64 17.8 63 17 95 95 NE 5 7 30.18 1022 5 8.0467 0.06 1.524
7:35 am 07:35 Cloudy with Light Drizzle 64 17.5 62 16.7 95 95 E 5 7 30.18 1022 7 11.26538 0.07 1.778
7:55 am 07:55 Cloudy 64 17.5 62 16.7 95 95 ENE 6 9 30.21 1023 7 11.26538 0.07 1.778
8:15 am 08:15 Cloudy with Rain 64 17.5 62 16.7 95 95 E 7 11 30.21 1023 7 11.26538 0.01 0.254
8:35 am 08:35 Cloudy with Drizzle 64 17.5 62 16.7 95 95 E 6 9 30.21 1023 5 8.0467 0.02 0.508
8:55 am 08:55 Cloudy with Light Drizzle 64 17.5 62 16.9 96 96 ENE 7 11 30.21 1023 5 8.0467 0.02 0.508
9:15 am 09:15 Cloudy with Light Rain 64 17.7 63 17 96 96 ENE 7 11 30.21 1023 7 11.26538 0 0
9:35 am 09:35 Cloudy 64 17.8 63 17 95 95 ENE 7 11 30.21 1023 10 16.0934 0 0
9:55 am 09:55 Cloudy with Light Rain 64 18 63 17.1 95 95 ENE 7 11 30.21 1023 10 16.0934 0 0
10:15 am 10:15 Cloudy 66 18.7 63 17.4 92 92 ENE 8 13 30.21 1023 10 16.0934 0 0
10:35 am 10:35 Cloudy 67 19.4 62 16.9 86 86 ENE 10 17 30.18 1022 10 16.0934 0 0
10:55 am 10:55 Cloudy 67 19.2 62 16.6 85 85 ENE 12 19 30.18 1022 10 16.0934 0 0
11:15 am 11:15 Cloudy 67 19.4 62 16.6 84 84 NE 9 15 30.18 1022 10 16.0934 0 0
11:35 am 11:35 Cloudy 67 19.5 62 16.4 82 82 NE 8 13 30.18 1022 10 16.0934 0 0
11:55 am 11:55 Cloudy 69 20.4 62 16.5 78 78 ENE 10 17 30.18 1022 10 16.0934 0 0
12:15 pm 12:15 Cloudy 69 20.7 62 16.6 77 77 ENE 12 19 30.18 1022 10 16.0934 0 0
12:35 pm 12:35 Cloudy 71 21.8 62 16.9 74 74 ENE 10 17 30.18 1022 10 16.0934 0 0
12:55 pm 12:55 Mostly Cloudy 72 22 62 16.4 71 71 E 12 19 30.15 1021 10 16.0934 0 0
1:15 pm 13:15 Mostly Cloudy 72 22.4 62 16.4 69 69 E 10 17 30.12 1020 10 16.0934 0 0
1:35 pm 13:35 Mostly Cloudy 74 23.3 61 16 64 64 E 8 13 30.12 1020 10 16.0934 0 0
1:55 pm 13:55 Partly Cloudy 73 22.7 60 15.5 64 64 ENE 12 19 30.12 1020 10 16.0934 0 0
2:15 pm 14:15 Partly Cloudy 73 22.9 60 15.6 64 64 E 10 17 30.12 1020 10 16.0934 0 0
2:35 pm 14:35 Mostly Cloudy 74 23.3 61 16 64 64 NE 10 17 30.12 1020 10 16.0934 0 0
2:55 pm 14:55 Mostly Cloudy 74 23.4 60 15.3 61 61 ENE 10 17 30.09 1019 10 16.0934 0 0
3:15 pm 15:15 Mostly Cloudy 74 23.6 59 14.9 58 58 E 10 17 30.09 1019 10 16.0934 0 0
3:35 pm 15:35 Partly Cloudy 75 24 59 14.9 57 57 ENE 10 17 30.09 1019 10 16.0934 0 0
3:55 pm 15:55 Partly Cloudy 75 23.8 58 14.3 55 55 ENE 12 19 30.09 1019 10 16.0934 0 0
4:15 pm 16:15 Sunny 75 24 57 13.8 53 53 E 8 13 30.09 1019 10 16.0934 0 0
4:35 pm 16:35 Sunny 75 24 57 14.1 54 54 NE 10 17 30.09 1019 10 16.0934 0 0
4:55 pm 16:55 Sunny 75 24 55 13 50 50 ENE 12 19 30.09 1019 10 16.0934 0 0
5:15 pm 17:15 Sunny 75 23.8 55 12.5 49 49 E 9 15 30.09 1019 10 16.0934 0 0
5:35 pm 17:35 Partly Cloudy 74 23.6 58 14.3 56 56 ENE 8 13 30.09 1019 10 16.0934 0 0
5:55 pm 17:55 Mostly Cloudy 74 23.5 59 14.8 58 58 ENE 10 17 30.06 1018 10 16.0934 0 0
6:15 pm 18:15 Partly Cloudy 73 22.5 58 14.2 60 60 E 10 17 30.06 1018 10 16.0934 0 0
6:35 pm 18:35 Sunny 72 22.1 56 13.6 59 59 E 8 13 30.09 1019 10 16.0934 0 0
6:55 pm 18:55 Partly Cloudy 72 22.1 57 13.9 60 60 E 8 13 30.09 1019 10 16.0934 0 0
7:15 pm 19:15 Mostly Cloudy 71 21.7 57 14.1 62 62 E 10 17 30.09 1019 10 16.0934 0 0
7:35 pm 19:35 Partly Cloudy 69 20.6 58 14.6 69 69 E 6 9 30.12 1020 10 16.0934 0 0
7:55 pm 19:55 Partly Cloudy 67 19.6 59 14.9 74 74 E 7 11 30.12 1020 10 16.0934 0 0
8:15 pm 20:15 Clear 67 19.7 61 16.1 80 80 E 10 17 30.12 1020 10 16.0934 0 0
8:35 pm 20:35 Clear 66 19 61 16.3 84 84 E 7 11 30.12 1020 10 16.0934 0 0
8:55 pm 20:55 Clear 65 18.1 61 16.1 88 88 E 6 9 30.15 1021 10 16.0934 0 0
9:15 pm 21:15 Clear 64 17.7 61 16 90 90 E 6 9 30.15 1021 10 16.0934 0 0
9:35 pm 21:35 Clear 64 17.5 61 16 91 91 E 8 13 30.18 1022 10 16.0934 0 0
9:55 pm 21:55 Mostly Cloudy 64 17.5 61 16.2 92 92 E 9 15 30.18 1022 10 16.0934 0 0
10:15 pm 22:15 Mostly Cloudy 64 17.5 61 16.1 92 92 ENE 7 11 30.18 1022 10 16.0934 0 0
10:35 pm 22:35 Cloudy 64 17.5 61 16.3 93 93 E 7 11 30.18 1022 10 16.0934 0 0
10:55 pm 22:55 Cloudy 64 17.6 62 16.5 93 93 ENE 6 9 30.18 1022 10 16.0934 0 0
11:15 pm 23:15 Cloudy 64 17.6 62 16.4 93 93 E 8 13 30.18 1022 10 16.0934 0 0
11:35 pm 23:35 Cloudy 64 17.5 61 16.2 92 92 E 9 15 30.18 1022 7 11.26538 0 0
11:55 pm 23:55 Cloudy with Mist and Fog 63 17.2 61 16.1 93 93 ENE 12 19 30.18 1022 3 4.82802 0 0

Powered by AerisWeather